Theta_e
339 342 345 349 354 350 354 353 346 347 346 344 343 346 350 351 346 340 342 342 341 342 348 347 347 350 348 350 349 350 350 350 349 349 351 350 351 348 346 345 348 347 350 351 351 352 352 351 347
337 339 347 349 355 357 357 349 348 345 343 342 346 348 351 353 347 344 345 344 341 346 348 348 348 350 349 349 349 351 350 350 351 351 346 350 349 350 351 351 351 346 346 346 346 346 345 345 346
338 348 350 354 357 358 356 349 349 345 343 347 350 348 351 351 344 345 346 344 345 346 348 347 347 347 348 350 350 349 352 350 350 351 351 349 350 350 348 351 350 346 346 345 348 347 345 346 350
345 348 350 358 361 357 357 348 347 347 347 348 348 352 348 345 346 348 346 345 346 347 348 347 347 348 351 351 350 351 350 346 347 350 351 351 348 348 351 350 352 351 351 348 345 344 346 350 351
345 352 354 358 359 356 354 346 347 350 349 349 348 352 350 348 347 347 347 347 346 347 349 350 348 349 351 351 351 351 351 350 351 349 346 351 351 351 350 351 350 349 349 344 345 345 345 345 350
354 354 357 360 359 356 354 348 351 351 350 349 350 351 350 348 347 349 347 348 347 347 348 347 349 347 351 351 352 349 350 351 350 350 349 349 350 349 350 349 349 348 348 344 343 343 345 348 349
356 356 359 359 360 357 356 350 351 351 350 350 348 350 350 347 349 348 348 347 347 351 350 349 348 350 347 351 352 351 349 348 347 349 348 347 345 348 350 350 348 346 347 345 343 342 341 345 346
354 354 356 356 360 358 352 350 350 349 352 345 344 349 351 347 349 348 349 348 349 351 348 347 348 350 347 348 351 352 351 347 348 350 349 349 351 350 346 345 349 347 346 345 342 340 341 344 346
350 358 358 356 357 357 353 351 349 348 349 348 348 345 346 347 348 347 348 349 350 348 344 348 348 348 348 347 350 351 351 345 346 351 349 349 346 345 343 342 346 342 340 339 340 339 339 338 340
349 357 356 352 352 354 352 354 351 351 352 351 349 345 345 345 346 347 347 347 345 346 348 345 349 349 348 351 349 349 345 345 345 346 344 343 344 345 346 345 341 339 338 338 337 336 338 343 346
346 357 354 352 351 350 352 353 347 351 353 349 350 346 344 344 345 344 344 344 344 349 349 345 345 350 349 349 349 347 344 342 341 341 342 342 343 343 343 342 342 344 345 345 346 346 344 343 343
356 355 351 353 350 352 355 351 348 349 351 346 346 344 344 344 345 346 346 345 343 348 348 345 347 348 349 347 346 346 343 341 344 345 343 342 342 341 341 343 344 344 344 345 345 345 345 345 343
353 355 352 354 350 352 353 354 352 348 348 346 345 344 344 344 345 346 346 346 344 344 346 345 345 346 345 344 343 341 343 346 347 345 343 341 341 342 343 341 341 344 346 345 344 344 343 341 340
354 353 352 352 352 351 353 354 351 348 347 348 347 345 344 344 343 345 345 347 346 344 346 346 343 343 342 342 344 346 347 347 347 344 341 342 340 343 343 342 343 344 345 343 343 343 344 342 340
351 355 353 351 352 354 354 359 355 349 348 350 348 346 345 344 342 343 345 346 346 346 347 346 345 342 342 344 345 346 346 346 345 345 344 343 345 342 344 341 345 347 345 342 342 343 344 344 343
354 351 355 352 353 352 352 362 354 350 350 350 349 349 347 345 343 343 345 346 346 346 346 347 346 342 343 345 344 345 346 345 344 344 344 344 343 342 343 345 347 347 348 346 345 345 343 343 344
344 355 356 356 352 352 352 354 352 350 350 350 349 348 348 346 344 343 345 346 345 346 346 346 346 345 345 344 344 344 345 345 344 345 346 344 344 344 344 345 346 349 350 350 349 344 342 343 344
344 352 356 357 355 353 354 351 353 351 351 350 349 348 346 346 345 343 345 345 345 346 346 346 346 346 346 346 346 343 344 344 344 344 345 346 344 344 344 345 346 349 349 351 350 346 342 342 344
341 349 355 356 352 354 353 355 354 351 351 349 348 346 344 346 344 344 344 344 345 345 346 347 347 345 344 344 346 346 346 344 343 345 345 345 343 341 342 344 346 348 350 352 350 346 343 344 347
325 346 355 352 350 350 354 354 353 351 351 346 347 345 344 344 342 344 344 343 345 345 346 347 347 345 345 344 344 344 345 343 341 345 345 345 343 344 343 342 345 345 349 351 351 345 346 344 346
333 345 353 351 349 346 351 350 355 352 350 346 340 344 344 344 344 344 344 344 344 345 346 348 347 343 345 344 344 344 344 344 345 346 347 345 343 345 347 342 345 346 349 349 351 350 350 344 341
338 345 345 349 346 348 350 357 351 354 352 347 344 342 344 344 343 343 343 344 344 345 345 347 346 345 346 343 343 344 344 345 345 346 347 347 347 347 346 347 347 346 348 350 349 350 349 350 344
332 344 345 347 353 352 352 355 347 353 355 351 344 341 343 344 343 343 343 344 344 344 343 345 346 345 346 345 345 344 344 343 344 346 347 347 346 347 348 348 348 346 345 349 349 349 349 348 348
346 348 346 344 350 353 349 351 349 354 353 351 344 342 341 343 343 343 343 344 344 344 344 345 346 344 346 345 345 344 344 344 344 346 346 346 348 347 348 349 347 345 343 347 349 347 349 349 348
336 335 342 343 350 355 348 355 352 345 346 350 346 342 340 342 343 343 342 344 344 345 345 346 347 344 346 345 344 344 344 344 343 345 346 346 345 346 347 347 348 347 345 345 348 347 348 349 349
335 329 336 346 351 350 351 353 347 342 342 344 344 341 340 341 343 343 343 344 344 346 346 346 347 344 345 344 344 344 344 344 344 345 345 346 346 345 346 346 347 348 348 347 349 348 348 348 349
338 340 335 347 347 351 351 348 343 341 341 342 342 341 341 340 344 343 343 343 344 346 346 346 346 345 345 345 343 343 345 345 345 345 346 346 345 347 347 347 346 347 349 348 347 350 348 348 348
333 331 340 339 353 353 351 348 349 345 346 343 343 342 341 340 342 343 344 344 344 345 346 346 346 346 346 346 345 342 344 345 345 346 347 346 345 347 348 348 348 347 349 349 349 348 349 348 348
321 325 324 332 337 348 352 349 343 341 349 350 349 345 340 340 341 344 344 344 344 344 346 346 346 346 346 346 345 346 344 345 346 347 347 346 347 348 348 346 348 349 348 350 350 349 350 349 350
320 322 319 325 326 337 343 332 344 346 348 348 344 341 339 341 342 344 345 345 345 344 345 347 347 346 345 345 345 344 347 346 346 347 347 346 346 346 348 347 348 349 347 349 349 350 351 350 350
Wind_Speed
3 1 1 1 2 4 2 2 3 8 8 5 11 5 5 5 1 3 16 13 16 17 13 11 11 11 12 13 13 14 14 13 14 13 13 11 12 12 13 13 12 12 13 13 14 14 14 15 14
2 1 0 1 3 4 2 3 9 4 6 16 8 8 5 4 4 8 11 19 19 17 15 13 12 12 12 12 13 14 13 14 13 14 12 12 11 12 12 12 11 12 14 14 15 14 14 15 17
0 2 1 2 2 2 2 5 6 9 17 5 5 7 4 3 8 7 15 23 20 18 15 14 12 13 13 12 13 14 12 13 13 13 11 10 12 11 12 13 13 13 14 15 15 18 18 16 17
1 2 2 4 4 2 2 7 11 8 6 6 10 8 5 11 5 9 25 23 20 18 15 14 14 14 14 13 13 13 13 12 13 11 12 10 10 11 11 11 13 13 12 13 15 16 15 14 15
4 2 4 4 2 5 4 4 6 4 4 5 2 5 6 4 12 27 24 22 21 18 15 14 13 14 14 14 13 13 12 12 12 11 10 8 9 10 11 12 11 11 12 13 13 14 15 12 13
3 1 4 3 2 4 3 6 3 8 9 9 10 8 2 15 24 21 23 22 20 19 16 13 11 13 15 14 14 13 12 11 10 8 9 9 10 11 12 12 11 11 11 12 12 14 14 13 10
3 3 3 3 2 4 5 7 4 6 8 7 5 6 6 9 18 23 22 22 19 17 16 14 12 12 13 14 14 14 12 12 9 10 10 11 11 11 11 12 11 11 10 10 10 10 10 8 8
2 3 3 2 5 2 6 4 6 5 5 8 8 6 9 11 19 22 21 19 18 16 15 14 14 12 12 14 14 12 12 10 10 10 11 11 10 10 11 13 11 11 9 8 7 7 8 8 6
2 3 3 6 7 6 5 3 3 7 8 2 2 8 13 24 24 22 19 17 16 14 14 15 14 13 11 10 13 13 10 12 11 10 9 10 11 13 14 13 12 11 10 8 7 7 6 7 7
2 2 6 2 6 6 6 2 6 6 4 7 12 15 22 25 22 19 16 15 17 15 15 15 15 14 14 11 12 12 11 11 11 10 10 12 12 13 12 12 12 10 9 6 4 3 2 4 4
3 2 5 9 7 8 5 5 1 13 3 8 18 15 18 21 17 16 14 19 21 18 16 15 16 15 14 13 12 11 11 11 11 10 10 11 10 10 10 9 8 6 5 3 2 3 3 4 3
2 1 5 7 9 5 3 6 5 3 4 14 18 22 20 15 16 18 16 20 20 20 17 16 16 16 14 13 12 12 11 11 9 9 8 8 7 7 7 9 8 9 8 9 7 4 2 1 2
3 3 2 4 7 12 3 6 5 1 14 13 16 18 15 13 13 15 19 19 20 21 18 17 16 16 14 14 13 14 12 10 8 7 5 5 4 5 6 7 9 10 9 10 10 8 7 8 4
3 9 5 8 8 9 6 5 4 7 14 14 17 15 13 14 16 15 19 19 22 21 19 18 17 16 16 16 15 13 9 8 7 7 6 3 2 2 5 6 7 8 8 7 9 9 8 8 8
5 5 3 8 3 5 10 11 12 9 17 16 15 13 11 13 16 19 22 24 25 22 20 19 17 16 18 16 13 11 9 8 8 7 5 2 1 1 3 5 5 6 5 5 5 7 8 8 8
3 3 3 4 3 3 3 5 8 8 18 18 15 13 12 11 18 19 21 26 25 22 22 20 18 17 17 15 14 11 8 9 9 7 5 4 3 2 6 5 6 7 5 3 1 4 6 7 6
5 2 3 2 5 3 3 4 3 6 16 15 15 13 13 10 13 19 20 28 25 24 22 21 19 18 18 15 13 12 10 10 9 6 7 7 5 6 5 5 5 7 9 9 7 7 6 7 5
2 3 4 4 6 4 1 5 8 7 7 14 16 14 10 11 15 21 22 26 26 23 22 21 19 18 16 17 18 15 11 10 8 6 9 7 5 4 4 4 5 6 7 7 5 5 8 3 2
4 4 6 4 6 7 4 3 7 12 5 11 13 13 12 14 14 18 21 25 23 23 25 22 22 18 18 16 19 18 16 14 10 8 7 6 3 5 2 3 5 7 7 9 5 5 8 4 3
3 6 3 2 3 3 4 3 4 11 5 6 16 13 16 8 8 16 20 22 26 26 27 24 24 21 18 16 18 18 17 14 15 11 8 6 6 5 3 3 4 5 6 8 11 7 3 6 6
3 5 4 4 3 2 4 2 5 6 4 7 6 16 14 17 14 12 19 23 25 28 30 30 27 24 19 18 18 16 17 11 11 11 11 10 9 6 4 5 4 4 4 7 9 8 6 3 9
4 5 9 10 2 1 5 4 4 9 10 7 6 10 14 16 13 11 18 21 26 29 29 30 26 26 22 20 19 21 20 15 14 13 12 11 9 8 4 4 4 4 3 4 6 8 8 6 2
4 9 8 3 4 2 3 3 5 9 9 12 8 10 13 15 16 16 21 25 29 26 30 29 26 28 24 22 18 21 19 18 17 14 11 10 8 7 6 6 3 2 1 2 3 4 8 9 9
12 8 7 5 3 2 1 7 4 6 16 20 6 9 12 12 14 16 19 17 19 22 28 30 28 29 24 23 21 20 20 20 18 18 15 11 10 8 7 7 4 4 4 3 1 2 3 6 6
6 6 3 3 2 0 4 3 9 9 7 20 16 13 11 14 14 12 15 20 21 26 30 32 30 30 27 24 23 22 20 21 19 20 18 14 12 11 10 9 8 6 6 5 4 2 1 2 2
6 6 5 6 5 3 2 5 5 4 5 16 17 15 13 14 15 17 23 25 26 27 30 31 33 32 28 25 23 22 22 22 19 19 18 17 14 14 13 12 10 10 7 8 6 5 4 4 3
5 4 4 6 3 3 1 5 6 7 13 8 16 16 17 15 18 19 24 26 25 27 31 35 34 34 31 27 24 24 23 23 22 19 18 20 17 15 14 12 12 13 12 10 10 8 7 6 6
7 6 1 2 4 2 3 3 5 10 13 8 13 19 19 18 18 17 23 28 28 29 32 33 35 36 33 28 25 25 24 24 21 19 18 19 18 16 15 14 15 16 15 12 10 11 9 8 8
1 1 2 3 3 5 3 5 4 4 10 9 10 13 16 16 17 18 22 28 29 28 30 33 33 34 32 29 26 23 22 23 21 20 17 15 16 16 14 13 14 18 18 16 14 14 13 12 10
1 1 4 4 3 2 3 4 7 7 2 3 0 6 8 14 17 17 24 26 25 28 28 30 32 32 32 29 27 25 21 21 21 18 17 17 18 16 15 16 18 19 19 17 16 15 15 14 12
Wind_Direction
111 149 326 105 73 74 52 54 115 111 155 161 158 130 113 41 76 170 144 139 147 145 142 142 134 128 121 117 119 116 117 114 116 104 102 98 95 98 94 96 96 102 102 103 98 95 102 91 84
84 208 157 50 68 58 336 353 121 125 144 126 94 113 67 61 60 116 122 148 148 144 142 137 132 125 121 120 117 117 117 118 116 114 110 106 101 101 96 94 92 96 95 90 93 89 91 89 86
261 230 86 96 78 94 106 62 81 104 126 105 111 55 65 75 103 125 148 151 148 145 139 131 129 131 125 121 119 124 122 119 117 116 107 108 94 92 91 88 90 89 86 89 85 86 84 86 85
61 21 23 53 25 62 353 112 113 111 75 67 115 73 80 114 130 152 150 152 148 143 136 133 130 134 132 130 126 123 123 119 120 118 114 107 99 92 92 90 88 91 86 83 77 81 76 79 84
34 83 57 87 348 325 355 84 55 79 78 112 88 81 87 33 133 143 152 153 148 145 138 137 133 134 131 129 126 133 128 127 126 118 107 103 100 101 99 86 86 87 93 87 80 79 74 85 87
32 48 70 94 3 333 3 44 59 85 102 104 94 92 76 139 135 149 155 154 149 145 142 137 131 129 133 132 131 128 131 130 125 120 112 103 102 87 85 85 88 90 93 95 89 79 75 81 86
56 51 112 91 68 51 2 343 70 103 98 80 118 99 117 131 141 154 157 155 150 147 145 145 134 130 134 136 137 137 132 126 121 114 108 100 97 87 84 84 84 90 98 101 98 87 80 83 81
112 92 126 44 152 54 289 357 115 98 50 101 137 149 153 159 152 156 158 158 156 153 153 149 144 139 141 146 142 143 139 126 126 113 106 99 92 90 88 88 84 89 94 103 99 75 72 67 58
255 80 145 159 136 170 233 133 175 99 130 64 106 122 132 150 153 153 156 157 161 162 161 158 153 150 148 140 139 144 140 131 113 110 115 111 98 89 86 78 83 93 99 95 85 78 74 54 46
132 146 185 118 147 177 173 237 150 131 99 99 91 96 131 141 146 147 159 167 171 170 167 167 162 156 150 143 145 147 143 130 125 126 119 105 96 85 78 87 88 90 89 97 90 76 17 358 14
174 218 148 166 150 156 221 231 160 131 110 175 143 139 144 146 153 155 173 180 179 174 172 170 166 160 158 159 151 151 146 143 140 130 120 106 95 78 72 66 74 83 70 54 358 330 339 356 19
182 123 165 143 164 119 127 336 134 166 155 151 148 152 151 156 165 168 180 185 185 180 176 173 169 165 164 165 159 157 150 145 135 131 124 116 96 80 63 39 57 67 66 54 42 17 11 315 313
160 94 63 47 150 114 56 265 20 189 131 141 141 149 157 159 169 174 182 186 183 181 177 175 173 169 165 165 158 149 148 145 145 151 146 129 89 47 39 46 78 47 47 47 50 57 61 52 83
89 90 52 60 141 130 159 209 81 258 135 143 152 160 163 167 173 170 179 190 185 181 178 171 174 172 167 164 158 156 161 165 167 166 157 133 43 37 61 65 66 38 29 68 68 73 77 73 83
144 93 64 40 6 99 156 140 200 179 152 155 165 163 169 176 177 186 184 192 187 186 181 176 170 171 166 166 168 165 164 164 170 172 180 175 303 32 31 83 66 40 58 89 80 68 98 86 82
38 77 88 9 351 49 174 137 193 176 161 163 169 167 176 181 188 191 190 195 191 189 189 182 180 179 178 177 171 171 174 172 176 183 198 224 182 114 105 89 55 60 65 71 67 113 112 78 88
13 87 61 99 353 116 68 136 189 232 174 167 173 178 183 172 189 192 195 196 196 192 185 189 188 185 182 181 177 181 183 181 196 187 181 162 143 131 112 82 65 73 78 77 66 115 135 114 88
165 108 76 52 16 61 48 174 190 207 200 180 181 186 182 172 199 193 196 199 200 195 191 190 195 189 195 201 195 185 180 182 183 189 168 156 138 138 114 74 63 78 73 56 57 115 131 113 66
124 92 87 77 32 20 360 155 193 206 231 204 187 183 190 194 199 190 195 199 198 194 193 191 185 178 173 171 176 192 198 188 187 171 193 185 150 162 148 72 67 64 57 42 44 129 123 81 4
124 123 100 105 124 116 272 235 175 202 249 265 194 185 197 170 175 186 185 192 200 198 199 193 189 183 180 175 175 182 189 195 192 188 198 202 179 170 162 127 109 82 67 59 67 105 88 46 52
197 138 165 146 218 156 298 273 162 202 197 268 203 192 187 184 185 183 181 190 202 205 203 199 194 190 188 185 185 190 192 188 188 195 196 190 182 169 159 152 127 88 86 82 68 65 64 104 48
215 196 122 134 129 84 78 300 213 183 205 224 209 194 197 192 190 173 183 188 198 208 206 204 201 195 189 190 197 191 185 187 199 198 190 188 187 179 182 148 138 115 108 98 73 58 54 54 57
171 115 108 118 83 57 85 307 268 166 209 223 213 200 199 190 184 179 191 196 200 201 206 206 202 196 189 187 192 190 187 193 200 199 201 198 199 193 188 179 164 154 157 154 91 65 59 54 60
120 91 52 65 51 71 242 200 270 184 214 205 204 211 194 184 186 192 189 196 199 197 205 205 203 198 197 191 191 193 194 198 203 202 206 214 212 213 210 204 209 203 205 215 219 30 50 55 59
87 84 46 24 42 231 286 225 266 272 198 199 203 204 194 188 182 174 176 184 197 199 203 207 204 201 203 201 199 197 203 205 204 204 209 217 219 219 220 217 229 227 219 213 224 228 319 7 49
180 136 156 165 188 208 78 228 250 239 190 199 202 187 191 191 186 183 186 190 189 199 202 206 206 206 203 208 211 206 205 203 206 211 217 222 226 230 228 230 241 248 241 230 220 215 217 250 245
213 216 201 112 320 112 243 296 301 247 265 200 189 181 189 191 188 189 187 191 190 193 202 206 208 208 209 210 215 212 209 207 210 217 226 231 233 233 231 233 240 241 238 244 240 232 232 247 261
151 164 144 18 134 200 243 270 274 225 225 232 192 199 200 189 189 188 187 189 190 195 201 206 214 212 212 213 212 212 212 214 219 221 230 225 227 233 229 236 239 233 234 240 238 239 234 236 244
72 170 20 125 129 163 180 249 312 258 217 203 206 225 208 183 187 185 187 191 189 190 199 203 210 213 215 217 216 214 215 216 214 222 227 230 224 220 233 240 251 234 229 234 244 249 242 245 244
95 85 154 142 221 238 178 279 347 343 29 104 259 210 185 178 180 185 182 183 180 184 192 202 208 215 218 218 217 217 218 219 221 227 236 227 229 231 239 244 252 232 230 233 242 237 236 237 251